Regional Weather Roundup
Issued by NWS

Home | Current Version | Previous Version | Graphics & Text | Print | Product List | Glossary On
Versions: 1 2 3 4 5 6 7 8 9 10 11 12 13 14 15 16 17 18 19 20 21 22 23 24 25 26 27 28 29 30 31 32 33 34 35 36 37 38 39 40 41 42 43 44 45 46 47 48 49 50
000
ASUS43 KMKX 222200
RWRWI

WISCONSIN REGIONAL WEATHER ROUNDUP
NATIONAL WEATHER SERVICE MILWAUKEE/SULLIVAN WI
500 PM CDT WED MAR 22 2017

NOTE: "FAIR" INDICATES FEW OR NO CLOUDS BELOW 12,000 FEET WITH NO
SIGNIFICANT WEATHER AND/OR OBSTRUCTIONS TO VISIBILITY.

WIZ001-002-006>008-014>016-023>028-222300-
NORTHWEST WISCONSIN

CITY           SKY/WX    TMP DP  RH WIND       PRES   REMARKS
SUPERIOR ARPT  MOSUNNY   31  17  57 NE9       30.44F WCI  23
ASHLAND        CLOUDY    33  15  47 NE10      30.43F WCI  25
HAYWARD        CLOUDY    38   6  26 S10       30.41F WCI  31
SIREN          MOSUNNY   38   6  26 S10       30.41F WCI  30
CUMBERLAND     CLOUDY    34   7  32 SE9       30.41F WCI  26
RICE LAKE      CLOUDY    35   7  30 SE7       30.44F WCI  29
CHETEK         CLOUDY    35   7  30 S12       30.44F WCI  27
LADYSMITH      SUNNY     36   7  30 S12       30.45F WCI  28
EAU CLAIRE     NOT AVBL
MENOMONIE      MOSUNNY   39   5  24 SE8       30.43F WCI  33
NEW RICHMOND   CLOUDY    37   5  26 SE10      30.41F WCI  30
OSCEOLA        MOSUNNY   38   9  29 SE9       30.44F WCI  31
$$

WIZ003>005-009-010-017-018-222300-
NORTH CENTRAL WISCONSIN

CITY           SKY/WX    TMP DP  RH WIND       PRES   REMARKS
MANITOWISH WTR MOSUNNY   32   3  28 S5        30.41F WCI  28
ARBOR VITAE    CLOUDY    37   5  26 S7        30.41F WCI  31
WOODRUFF       CLOUDY    37   5  26 S7        30.41F WCI  31
RHINELANDER    CLOUDY    36   5  27 S8        30.42F WCI  30
EAGLE RIVER    SUNNY     34  -3  20 SW7       30.42F WCI  28
LAND O LAKES   SUNNY     35  -1  21 SW8       30.43F WCI  29
PHILLIPS       MOSUNNY   34   6  31 SE8       30.41F WCI  27
TOMAHAWK       CLOUDY    35   4  27 CALM      30.44F
MEDFORD        CLOUDY    32  13  45 S7        30.45S WCI  26
MERRILL        SUNNY     35   7  31 S5        30.46F WCI  30
$$

WIZ029-030-035-036-043>047-222300-
CENTRAL WISCONSIN

CITY           SKY/WX    TMP DP  RH WIND       PRES   REMARKS
WAUSAU         SUNNY     35   3  26 S6        30.45F WCI  30
MOSINEE        MOSUNNY   34   7  32 S6        30.47F WCI  29
MARSHFIELD     SUNNY     36   5  27 SE6       30.44F WCI  31
STEVENS POINT  SUNNY     35   7  31 S7        30.48F WCI  29
WAUPACA        MOSUNNY   37   8  29 SE8       30.51F WCI  31
WAUTOMA        SUNNY     36  12  37 SE12      30.49F WCI  28
WISC RAPIDS    SUNNY     39   8  27 VRB6      30.47F WCI  35
CAMP DOUGLAS   NOT AVBL
$$

WIZ011>013-019>022-031-037>040-048>050-222300-
NORTHEAST WISCONSIN

CITY           SKY/WX    TMP DP  RH WIND       PRES   REMARKS
ANTIGO         CLOUDY    32   7  35 S5        30.46F WCI  28
SHAWANO        CLOUDY    35  16  45 NE5       30.52F WCI  31
OCONTO         CLOUDY    29  15  54 SE9       30.54F WCI  21
STURGEON BAY   SUNNY     28  16  60 SE6       30.55F WCI  22
GREEN BAY      SUNNY     34  19  54 SE6       30.52F WCI  29
MANITOWOC      NOT AVBL
APPLETON       MOSUNNY   34   3  27 VRB5      30.50F WCI  30
CLINTONVILLE   CLOUDY    34   9  35 SE5       30.51F WCI  30
OSHKOSH        SUNNY     34  17  50 E8        30.51F WCI  27
$$

WIZ032>034-041-042-053>061-222300-
SOUTHWEST WISCONSIN

CITY           SKY/WX    TMP DP  RH WIND       PRES   REMARKS
LA CROSSE      MOSUNNY   43   7  22 S9        30.45F
SPARTA         SUNNY     40   8  26 E8        30.47F
VIROQUA        MOSUNNY   40   7  25 SE7       30.44S WCI  35
BOSCOBEL       CLOUDY    42   7  23 E5        30.47F
PRAIRIE DU CHI CLOUDY    41   7  24 E12       30.46F
PLATTEVILLE    SUNNY     41  14  33 SE8       30.46F
$$

WIZ056-057-062-063-064-067-068-222300-
SOUTH CENTRAL WISCONSIN

CITY           SKY/WX    TMP DP  RH WIND       PRES   REMARKS
REEDSBURG      SUNNY     38  12  34 SE7       30.47F WCI  33
BARABOO/DELLS  SUNNY     38  12  34 E7        30.48S WCI  32
LONE ROCK      NOT AVBL
MINERAL POINT  MOSUNNY   41  10  28 E8        30.45F
MADISON        PTSUNNY   37  13  37 VRB5      30.48F WCI  33
MIDDLETON      SUNNY     40  16  37 E7        30.48F WCI  35
WATERTOWN      SUNNY     36  17  45 E8        30.49F WCI  30
MONROE         SUNNY     37  14  38 E9        30.46F WCI  31
JANESVILLE     MOSUNNY   39  16  38 SE9       30.48F WCI  33
$$

WIZ051-052-058>065-066-070>072-222300-
SOUTHEAST WISCONSIN

CITY           SKY/WX    TMP DP  RH WIND       PRES   REMARKS
MILWAUKEE      PTSUNNY   32  17  54 E10       30.54F WCI  24
WAUKESHA       SUNNY     32  16  51 E9        30.52F WCI  24
MILWAUKEE/TIMM SUNNY     30  16  55 E7        30.54F WCI  23
RACINE         SUNNY     30  17  58 E10       30.55F WCI  21
KENOSHA        SUNNY     31  18  58 E10       30.53F WCI  22
FOND DU LAC    SUNNY     35  18  49 NE10      30.51F WCI  27
SHEBOYGAN      SUNNY     29  16  58 E7        30.54F WCI  22
WEST BEND      MOSUNNY   32  19  59 E8        30.52F WCI  25
JUNEAU         SUNNY     35  18  48 SE6       30.50F WCI  30
$$

LSZ147-162-222300-
LAKE SUPERIOR

STATION/POSITION TIME  TEMP    WIND        PRES    WAVE
                       AIR SEA DIR/SP/G            HT/PER
                 (UTC) (F)     (DEG/KT/KT) (MB)    (FT/S)
DEVILS ISLAND    2100   26      70/  9/ 10 1033.3F
PORT WING        2140   29      30/ 14/ 17 1030.5F
SAXON HARBOR     2130   28      40/ 14/ 15 1030.8F
$$

LMZ867-665-643>646-222300-
LAKE MICHIGAN

STATION/POSITION TIME  TEMP    WIND        PRES    WAVE
                       AIR SEA DIR/SP/G            HT/PER
                 (UTC) (F)     (DEG/KT/KT) (MB)    (FT/S)
CHAMBERS ISLAND  2140   27      90/  5/  7 1033.9F
NORTHPORT PIER   2140   25     140/  3/  5 1034.5F
SISTER BAY       2021   39     300/  1/  3   N/A
KEWAUNEE LAKESHO 2130   26     100/  2/  6 1034.3F
SHEBOYGAN LAKESH 2100   26      60/  6/  8 1036.1F
PORT WASHINGTON  2130   29      90/  5/  8 1035.6F
MILWAUKEE LAKESH 2130   29      80/  6/  9   N/A
KENOSHA   LAKESH 2100   28      70/  7/ 10 1034.5
$$

TC  - TEMPERATURE IN CELSIUS
VSB - VISIBILITY IN STATUTE MILES
WCI - WIND CHILL INDEX
HX  - HEAT INDEX




USA.gov is the U.S. government's official web portal to all federal, state and local government web resources and services.